STARLINK-34659

Last updated on Tue Aug 26 2025 00:02:05 GMT+0000 (Coordinated Universal Time)

1 64913U 25157K 25237.58336806 .00015310 00000+0 39193-3 0 9998 2 64913 53.1614 187.6964 0002087 79.8364 229.3988 15.39622463 5984
UTC large
Height (km)
Speed (km/s)
/
Latitude / Longitude
Inclination (degrees)
Orbital Period (minutes)
Azimuth
Elevation
Range (km)
Doppler Factor

Next 0 passes for location: London (51.5072 / 0.1276)

Sorry there are no passes over London.
STARLINK-34659